Time,TemperatureF,DewpointF,PressureIn,WindDirection,WindDirectionDegrees,WindSpeedMPH,WindSpeedGustMPH,Humidity,HourlyPrecipIn,Conditions,Clouds,dailyrainin,SolarRadiationWatts/m^2,SoftwareType,DateUTC
2013-05-09 00:02:00,50.0,42.0,-100.00,NNE,19,4.0,9.0,75,0.00,,,0.10,0.000000,,2013-05-09 05:02:00,
2013-05-09 00:32:00,47.0,41.0,-100.00,NNE,29,5.0,10.0,79,0.00,,,0.10,0.000000,,2013-05-09 05:32:00,
2013-05-09 00:42:00,47.0,41.0,-100.00,NNE,29,5.0,10.0,79,0.00,,,0.10,0.000000,,2013-05-09 05:42:00,
2013-05-09 00:52:00,47.0,41.0,-100.00,NNE,29,5.0,10.0,79,0.00,,,0.10,0.000000,,2013-05-09 05:52:00,
2013-05-09 01:02:00,47.0,41.0,-100.00,NNE,29,5.0,10.0,79,0.00,,,0.10,0.000000,,2013-05-09 06:02:00,
2013-05-09 01:32:00,45.0,39.0,-100.00,NE,43,7.0,14.0,79,0.00,,,0.10,0.000000,,2013-05-09 06:32:00,
2013-05-09 01:42:00,45.0,39.0,-100.00,NE,43,7.0,14.0,79,0.00,,,0.10,0.000000,,2013-05-09 06:42:00,
2013-05-09 01:52:00,45.0,39.0,-100.00,NE,43,7.0,14.0,79,0.00,,,0.10,0.000000,,2013-05-09 06:52:00,
2013-05-09 02:01:00,45.0,39.0,-100.00,NE,43,7.0,14.0,79,0.00,,,0.10,0.000000,,2013-05-09 07:01:00,
2013-05-09 02:32:00,44.0,37.0,-100.00,NE,46,6.0,15.0,77,0.00,,,0.10,0.000000,,2013-05-09 07:32:00,
2013-05-09 02:43:00,44.0,37.0,-100.00,NE,46,6.0,15.0,77,0.00,,,0.10,0.000000,,2013-05-09 07:43:00,
2013-05-09 02:52:00,44.0,37.0,-100.00,NE,46,6.0,15.0,77,0.00,,,0.10,0.000000,,2013-05-09 07:52:00,
2013-05-09 03:02:00,44.0,37.0,-100.00,NE,46,6.0,15.0,77,0.00,,,0.10,0.000000,,2013-05-09 08:02:00,
2013-05-09 03:32:00,43.0,36.0,-100.00,NE,55,6.0,13.0,75,0.00,,,0.10,0.000000,,2013-05-09 08:32:00,
2013-05-09 03:42:00,43.0,36.0,-100.00,NE,55,6.0,13.0,75,0.00,,,0.10,0.000000,,2013-05-09 08:42:00,
2013-05-09 03:52:00,43.0,36.0,-100.00,NE,55,6.0,13.0,75,0.00,,,0.10,0.000000,,2013-05-09 08:52:00,
2013-05-09 04:02:00,43.0,36.0,-100.00,NE,55,6.0,13.0,75,0.00,,,0.10,0.000000,,2013-05-09 09:02:00,
2013-05-09 04:32:00,41.0,34.0,-100.00,NE,44,4.0,11.0,76,0.00,,,0.10,0.000000,,2013-05-09 09:32:00,
2013-05-09 04:43:00,41.0,34.0,-100.00,NE,44,4.0,11.0,76,0.00,,,0.10,0.000000,,2013-05-09 09:43:00,
2013-05-09 04:53:00,41.0,34.0,-100.00,NE,44,4.0,11.0,76,0.00,,,0.10,0.000000,,2013-05-09 09:53:00,
2013-05-09 05:02:00,41.0,34.0,-100.00,NE,44,4.0,11.0,76,0.00,,,0.10,0.000000,,2013-05-09 10:02:00,
2013-05-09 05:33:00,41.0,34.0,-100.00,NE,51,5.0,12.0,76,0.00,,,0.10,0.000000,,2013-05-09 10:33:00,
2013-05-09 05:42:00,41.0,34.0,-100.00,NE,51,5.0,12.0,76,0.00,,,0.10,0.000000,,2013-05-09 10:42:00,
2013-05-09 05:52:00,41.0,34.0,-100.00,NE,51,5.0,12.0,76,0.00,,,0.10,0.000000,,2013-05-09 10:52:00,
2013-05-09 06:02:00,41.0,34.0,-100.00,NE,51,5.0,12.0,76,0.00,,,0.10,0.000000,,2013-05-09 11:02:00,
2013-05-09 06:32:00,41.0,34.0,-100.00,NE,45,5.0,10.0,75,0.00,,,0.10,0.000000,,2013-05-09 11:32:00,
2013-05-09 06:42:00,41.0,34.0,-100.00,NE,45,5.0,10.0,75,0.00,,,0.10,0.000000,,2013-05-09 11:42:00,
2013-05-09 06:52:00,41.0,34.0,-100.00,NE,45,5.0,10.0,75,0.00,,,0.10,0.000000,,2013-05-09 11:52:00,
2013-05-09 07:01:00,41.0,34.0,-100.00,NE,45,5.0,10.0,75,0.00,,,0.10,0.000000,,2013-05-09 12:01:00,
2013-05-09 07:32:00,41.0,33.0,-100.00,NE,38,5.0,10.0,73,0.00,,,0.10,11.000000,,2013-05-09 12:32:00,
2013-05-09 07:42:00,41.0,33.0,-100.00,NE,38,5.0,10.0,73,0.00,,,0.10,11.000000,,2013-05-09 12:42:00,
2013-05-09 07:52:00,41.0,33.0,-100.00,NE,38,5.0,10.0,73,0.00,,,0.10,11.000000,,2013-05-09 12:52:00,
2013-05-09 08:01:00,41.0,33.0,-100.00,NE,38,5.0,10.0,73,0.00,,,0.10,11.000000,,2013-05-09 13:01:00,
2013-05-09 08:32:00,41.0,33.0,-100.00,NE,54,6.0,12.0,72,0.00,,,0.10,41.000000,,2013-05-09 13:32:00,
2013-05-09 08:42:00,41.0,33.0,-100.00,NE,54,6.0,12.0,72,0.00,,,0.10,41.000000,,2013-05-09 13:42:00,
2013-05-09 08:52:00,41.0,33.0,-100.00,NE,54,6.0,12.0,72,0.00,,,0.10,41.000000,,2013-05-09 13:52:00,
2013-05-09 09:01:00,41.0,33.0,-100.00,NE,54,6.0,12.0,72,0.00,,,0.10,41.000000,,2013-05-09 14:01:00,
2013-05-09 09:32:00,42.0,33.0,-100.00,NE,42,6.0,14.0,69,0.00,,,0.10,94.000000,,2013-05-09 14:32:00,
2013-05-09 09:42:00,42.0,33.0,-100.00,NE,42,6.0,14.0,69,0.00,,,0.10,94.000000,,2013-05-09 14:42:00,
2013-05-09 09:52:00,42.0,33.0,-100.00,NE,42,6.0,14.0,69,0.00,,,0.10,94.000000,,2013-05-09 14:52:00,
2013-05-09 10:01:00,42.0,33.0,-100.00,NE,42,6.0,14.0,69,0.00,,,0.10,94.000000,,2013-05-09 15:01:00,
2013-05-09 10:33:00,45.0,34.0,-100.00,NE,53,7.0,16.0,65,0.00,,,0.10,253.000000,,2013-05-09 15:33:00,
2013-05-09 10:43:00,45.0,34.0,-100.00,NE,53,7.0,16.0,65,0.00,,,0.10,253.000000,,2013-05-09 15:43:00,
2013-05-09 10:53:00,45.0,34.0,-100.00,NE,53,7.0,16.0,65,0.00,,,0.10,253.000000,,2013-05-09 15:53:00,
2013-05-09 11:03:00,45.0,34.0,-100.00,NE,53,7.0,16.0,65,0.00,,,0.10,253.000000,,2013-05-09 16:03:00,
2013-05-09 11:33:00,48.0,31.0,-100.00,ENE,73,8.0,16.0,51,0.00,,,0.10,485.000000,,2013-05-09 16:33:00,
2013-05-09 11:42:00,48.0,31.0,-100.00,ENE,73,8.0,16.0,51,0.00,,,0.10,485.000000,,2013-05-09 16:42:00,
2013-05-09 11:53:00,48.0,31.0,-100.00,ENE,73,8.0,16.0,51,0.00,,,0.10,485.000000,,2013-05-09 16:53:00,
2013-05-09 12:02:00,48.0,31.0,-100.00,ENE,73,8.0,16.0,51,0.00,,,0.10,485.000000,,2013-05-09 17:02:00,
2013-05-09 12:32:00,53.0,32.0,-100.00,ENE,62,6.0,13.0,45,0.00,,,0.10,876.000000,,2013-05-09 17:32:00,
2013-05-09 12:42:00,53.0,32.0,-100.00,ENE,62,6.0,13.0,45,0.00,,,0.10,876.000000,,2013-05-09 17:42:00,
2013-05-09 12:55:00,53.0,32.0,-100.00,ENE,62,6.0,13.0,45,0.00,,,0.10,876.000000,,2013-05-09 17:55:00,
2013-05-09 13:01:00,53.0,32.0,-100.00,ENE,62,6.0,13.0,45,0.00,,,0.10,876.000000,,2013-05-09 18:01:00,
2013-05-09 13:22:00,55.0,26.0,-100.00,NNE,32,7.0,16.0,33,0.00,,,0.10,1047.000000,,2013-05-09 18:22:00,
2013-05-09 13:32:00,55.0,26.0,-100.00,NNE,32,7.0,16.0,33,0.00,,,0.10,1047.000000,,2013-05-09 18:32:00,
2013-05-09 13:42:00,55.0,26.0,-100.00,NNE,32,7.0,16.0,33,0.00,,,0.10,1047.000000,,2013-05-09 18:42:00,
2013-05-09 13:52:00,55.0,26.0,-100.00,NNE,32,7.0,16.0,33,0.00,,,0.10,1047.000000,,2013-05-09 18:52:00,
2013-05-09 14:01:00,55.0,26.0,-100.00,NNE,32,7.0,16.0,33,0.00,,,0.10,1047.000000,,2013-05-09 19:01:00,
2013-05-09 14:32:00,57.0,23.0,-100.00,NE,40,8.0,14.0,27,0.00,,,0.03,1050.000000,,2013-05-09 19:32:00,
2013-05-09 14:42:00,57.0,23.0,-100.00,NE,40,8.0,14.0,27,0.00,,,0.03,1050.000000,,2013-05-09 19:42:00,
2013-05-09 14:52:00,57.0,23.0,-100.00,NE,40,8.0,14.0,27,0.00,,,0.03,1050.000000,,2013-05-09 19:52:00,
2013-05-09 15:01:00,57.0,23.0,-100.00,NE,40,8.0,14.0,27,0.00,,,0.03,1050.000000,,2013-05-09 20:01:00,
2013-05-09 15:32:00,58.0,23.0,-100.00,NNE,32,7.0,13.0,26,0.00,,,0.02,990.000000,,2013-05-09 20:32:00,
2013-05-09 15:42:00,58.0,23.0,-100.00,NNE,32,7.0,13.0,26,0.00,,,0.02,990.000000,,2013-05-09 20:42:00,
2013-05-09 15:52:00,58.0,23.0,-100.00,NNE,32,7.0,13.0,26,0.00,,,0.02,990.000000,,2013-05-09 20:52:00,
2013-05-09 16:02:00,58.0,23.0,-100.00,NNE,32,7.0,13.0,26,0.00,,,0.02,990.000000,,2013-05-09 21:02:00,
2013-05-09 16:33:00,59.0,21.0,-100.00,NNE,30,6.0,15.0,23,0.00,,,0.02,865.000000,,2013-05-09 21:33:00,
2013-05-09 16:43:00,59.0,21.0,-100.00,NNE,30,6.0,15.0,23,0.00,,,0.02,865.000000,,2013-05-09 21:43:00,
2013-05-09 16:53:00,59.0,21.0,-100.00,NNE,30,6.0,15.0,23,0.00,,,0.02,865.000000,,2013-05-09 21:53:00,
2013-05-09 17:03:00,59.0,21.0,-100.00,NNE,30,6.0,15.0,23,0.00,,,0.02,865.000000,,2013-05-09 22:03:00,
2013-05-09 17:33:00,58.0,20.0,-100.00,NE,43,7.0,14.0,23,0.00,,,0.02,717.000000,,2013-05-09 22:33:00,
2013-05-09 17:42:00,58.0,20.0,-100.00,NE,43,7.0,14.0,23,0.00,,,0.02,717.000000,,2013-05-09 22:42:00,
2013-05-09 17:52:00,58.0,20.0,-100.00,NE,43,7.0,14.0,23,0.00,,,0.02,717.000000,,2013-05-09 22:52:00,
2013-05-09 18:02:00,58.0,20.0,-100.00,NE,43,7.0,14.0,23,0.00,,,0.02,717.000000,,2013-05-09 23:02:00,
2013-05-09 18:32:00,56.0,21.0,-100.00,ENE,75,7.0,14.0,25,0.00,,,0.00,528.000000,,2013-05-09 23:32:00,
2013-05-09 18:42:00,56.0,21.0,-100.00,ENE,75,7.0,14.0,25,0.00,,,0.00,528.000000,,2013-05-09 23:42:00,
2013-05-09 18:52:00,56.0,21.0,-100.00,ENE,75,7.0,14.0,25,0.00,,,0.00,528.000000,,2013-05-09 23:52:00,
2013-05-09 19:01:00,56.0,21.0,-100.00,ENE,75,7.0,14.0,25,0.00,,,0.00,528.000000,,2013-05-10 00:01:00,
2013-05-09 19:22:00,54.0,18.0,-100.00,NE,53,6.0,14.0,24,0.00,,,0.00,325.000000,,2013-05-10 00:22:00,
2013-05-09 19:32:00,54.0,18.0,-100.00,NE,53,6.0,14.0,24,0.00,,,0.00,325.000000,,2013-05-10 00:32:00,
2013-05-09 19:42:00,54.0,18.0,-100.00,NE,53,6.0,14.0,24,0.00,,,0.00,325.000000,,2013-05-10 00:42:00,
2013-05-09 19:52:00,54.0,18.0,-100.00,NE,53,6.0,14.0,24,0.00,,,0.00,325.000000,,2013-05-10 00:52:00,
2013-05-09 20:01:00,54.0,18.0,-100.00,NE,53,6.0,14.0,24,0.00,,,0.00,325.000000,,2013-05-10 01:01:00,
2013-05-09 20:22:00,50.0,18.0,-100.00,NE,37,4.0,12.0,28,0.00,,,0.00,105.000000,,2013-05-10 01:22:00,
2013-05-09 20:32:00,50.0,18.0,-100.00,NE,37,4.0,12.0,28,0.00,,,0.00,105.000000,,2013-05-10 01:32:00,
2013-05-09 20:42:00,50.0,18.0,-100.00,NE,37,4.0,12.0,28,0.00,,,0.00,105.000000,,2013-05-10 01:42:00,
2013-05-09 20:52:00,50.0,18.0,-100.00,NE,37,4.0,12.0,28,0.00,,,0.00,105.000000,,2013-05-10 01:52:00,
2013-05-09 21:01:00,50.0,18.0,-100.00,NE,37,4.0,12.0,28,0.00,,,0.00,105.000000,,2013-05-10 02:01:00,
2013-05-09 21:21:00,45.0,20.0,-100.00,NE,37,4.0,8.0,37,0.00,,,0.00,8.000000,,2013-05-10 02:21:00,
2013-05-09 21:32:00,45.0,20.0,-100.00,NE,37,4.0,8.0,37,0.00,,,0.00,8.000000,,2013-05-10 02:32:00,
2013-05-09 21:42:00,45.0,20.0,-100.00,NE,37,4.0,8.0,37,0.00,,,0.00,8.000000,,2013-05-10 02:42:00,
2013-05-09 21:52:00,45.0,20.0,-100.00,NE,37,4.0,8.0,37,0.00,,,0.00,8.000000,,2013-05-10 02:52:00,
2013-05-09 22:01:00,45.0,20.0,-100.00,NE,37,4.0,8.0,37,0.00,,,0.00,8.000000,,2013-05-10 03:01:00,
2013-05-09 22:33:00,42.0,21.0,-100.00,NE,50,5.0,8.0,42,0.00,,,0.00,0.000000,,2013-05-10 03:33:00,
2013-05-09 22:43:00,42.0,21.0,-100.00,NE,50,5.0,8.0,42,0.00,,,0.00,0.000000,,2013-05-10 03:43:00,
2013-05-09 22:53:00,42.0,21.0,-100.00,NE,50,5.0,8.0,42,0.00,,,0.00,0.000000,,2013-05-10 03:53:00,
2013-05-09 23:03:00,42.0,21.0,-100.00,NE,50,5.0,8.0,42,0.00,,,0.00,0.000000,,2013-05-10 04:03:00,
2013-05-09 23:33:00,39.0,19.0,-100.00,ESE,102,4.0,9.0,45,0.00,,,0.00,0.000000,,2013-05-10 04:33:00,
2013-05-09 23:43:00,39.0,19.0,-100.00,ESE,102,4.0,9.0,45,0.00,,,0.00,0.000000,,2013-05-10 04:43:00,
2013-05-09 23:53:00,39.0,19.0,-100.00,ESE,102,4.0,9.0,45,0.00,,,0.00,0.000000,,2013-05-10 04:53:00,